This is the latest recevied weather packets stored in our database for station/object KQ4WWD. If no packets are shown the sender has not sent any weather packets the latest 10 day(s).
| Time | Temp. | Humidity | Pressure | Rain* | Wind** | Luminosity | Snow |
|---|---|---|---|---|---|---|---|
| 1777555389 | 24.44° C | 84% | 1011.4 hPa | 0 mm | - | 334 W/m² | - |
| 1777555085 | 23.89° C | 85% | 1011.3 hPa | 0 mm | - | 410 W/m² | - |
| 1777554783 | 23.33° C | 87% | 1011.4 hPa | 0 mm | - | 213 W/m² | - |
| 1777554480 | 23.33° C | 87% | 1011.3 hPa | 0 mm | - | 173 W/m² | - |
| 1777554176 | 23.33° C | 88% | 1011.3 hPa | 0 mm | - | 122 W/m² | - |
| 1777553873 | 22.78° C | 88% | 1011.5 hPa | 0 mm | - | 121 W/m² | - |
| 1777553569 | 22.78° C | 88% | 1011.5 hPa | 0 mm | - | 117 W/m² | - |
| 1777553265 | 22.78° C | 88% | 1011.5 hPa | 0 mm | - | 85 W/m² | - |
| 1777552962 | 22.22° C | 89% | 1011.4 hPa | 0 mm | - | 65 W/m² | - |
| 1777552656 | 22.22° C | 89% | 1011.6 hPa | 0 mm | - | 60 W/m² | - |
| 1777552354 | 22.22° C | 89% | 1011.6 hPa | 0 mm | - | 48 W/m² | - |
| 1777552050 | 22.22° C | 90% | 1011.9 hPa | 0 mm | - | 65 W/m² | - |
| 1777551747 | 22.22° C | 90% | 1011.9 hPa | 0 mm | - | 88 W/m² | - |
| 1777551444 | 21.67° C | 90% | 1012 hPa | 0 mm | - | 76 W/m² | - |
| 1777551141 | 21.67° C | 91% | 1012.4 hPa | 0 mm | - | 60 W/m² | - |
| 1777550839 | 21.67° C | 91% | 1012.3 hPa | 0 mm | - | 51 W/m² | - |
| 1777550535 | 21.67° C | 91% | 1012.2 hPa | 0 mm | - | 51 W/m² | - |
| 1777550231 | 21.67° C | 91% | 1011.8 hPa | 0 mm | - | 52 W/m² | - |
| 1777549927 | 21.67° C | 91% | 1011.8 hPa | 0 mm | - | 48 W/m² | - |
| 1777549623 | 21.67° C | 90% | 1011.8 hPa | 0 mm | - | 43 W/m² | - |
| 1777549319 | 21.67° C | 90% | 1011.8 hPa | 0 mm | - | 37 W/m² | - |
| 1777549017 | 21.67° C | 90% | 1011.6 hPa | 0 mm | - | 31 W/m² | - |
| 1777548713 | 21.67° C | 91% | 1011.5 hPa | 0 mm | - | 28 W/m² | - |
| 1777548410 | 21.67° C | 91% | 1011.4 hPa | 0 mm | - | 24 W/m² | - |
| 1777548107 | 21.11° C | 91% | 1011.5 hPa | 0 mm | - | 18 W/m² | - |
* Rain latest hour (hover to see other rain measurements)
** Current wind speed in m/s (hover to see current wind gust speed)